Location: Cambroso
(45.2833°N, 12.0850°E)
Time: 10:55:40
(UTC+00:00)

RESURS DK-1 - Pass Details

Date: 21 January 2021
Orbit: 557 x 560 km, 69.9° (Epoch: 28 February)

Event Time Altitude Azimuth Distance (km) Brightness Sun altitude
Rises 16:58:50 0° 239° (WSW) 2,735 7.8 -9.8°
Reaches altitude 10° 17:01:23 10° 254° (WSW) 1,843 6.6 -10.2°
Maximum altitude 17:04:44 24° 309° (NW) 1,196 4.4 -10.8°
Drops below altitude 10° 17:08:06 10° 3° (N) 1,852 4.8 -11.3°
Enters shadow 17:10:20 - 17° (NNE) 2,630 5.5 -11.7°
